Вернуться в каталог

COSMOS 1707

АктивенВоенныеPO
NORAD 16326·PAYLOAD·🇷🇺 Russia

Запущен Dec 12, 1985 с Plesetsk Cosmodrome

Loading…

Ближайшие Пролёты (ближайшие 24 часа)

TLE

СвежийSource: Space-Track

Эпоха: Sep 15, 2026, 04:33 UTC

1 16326U 85113A   26258.18993319  .02438444 -12254-5  61118-3 0  9991
2 16326  82.4661  66.2714 0007811 269.5831  90.4567 16.29009557231791

Отслеживайте COSMOS 1707 в реальном времени с AllMySat

Download on the App Store